ATLAS 5 CENTAUR DEB, 44645

Orbit data source: Space-Track

ATLAS 5 CENTAUR DEB, 44645 is space debris in HEO originally from a launch on Wed, 17 Oct 2018 UTC launched from the Air Force Eastern Test Range (AFETR). Debris objects in space refer to the collection of defunct objects orbiting the Earth. Examples of debris include non-operational satellites, rocket bodies, and fragments generated from explosions, collisions, or faulty payload assembly.

Loading next visibility...
Identifier
44645, 2018-079F
Orbit
HEO
Country
Flag of USUS
Related business
Flag of USUnited Launch Alliance/Lockheed Martin (US)
Manufacturer
ULA Decatur
Mission
Spacecraft
Bus & Motor
Unknown
Mass
Unknown
Launch date (UTC)
2018-10-17 (8 years ago)
Launch vehicle
Unknown
Launch site
Air Force Eastern Test Range (AFETR)
Object type
Payload
Rocket body
Debris
Shape & HBR
Unknown shape, 1.1 m
Radar Cross Section
Medium (>0.1 m² and <1 m²)

Expand to show TLE details & history
Last TLE update: 1 week ago

TLE from 1 week ago
0 ATLAS 5 CENTAUR DEB
1 44645U 18079F   26227.88494636 -.00000144  00000-0  00000-0 0  9995
2 44645  13.5014  10.3437 4648192   7.1868 357.5364  1.89807580 54177
Epoch: 2026-08-15T21:14Z
TLE epoch observation values (Epoch: 2026-08-15T21:14:19.365Z)
Latitude
0.00006°
Longitude
87.49145°
Altitude
8,410.336 km
Speed
6.28 km/s
True Right ascension
00h 41m 26s
True Declination
0° 00' 00"
Sunlit
Object was in daylight at epoch
Visualization orbit readout
Latitude
Unknown
Longitude
Unknown
Altitude
Unknown
Speed
Unknown
Apparent Right ascension
Unknown
Apparent Declination
Unknown
Sunlit
N/A
Visualization observer readout
Local Sidereal Time
20:00:48
Azimuth
Unknown
Elevation
Unknown
Doppler factor
Unknown
Orbital elements
Apogee altitude
33,987.371 km
Perigee altitude
8,369.652 km
Semi-major axis
27,556.649 km
Eccentricity
0.46482
Inclination
13.5014°
RAAN
10.3437°
Arg. of periapsis
7.1868°
True anomaly
352.39845°
Mean anomaly
357.5364°
Eccentric anomaly
355.40098°
Mean motion
0.47446 °/min
Orbital period
758.75 mins
BSTAR
0
Loading maneuver chart data...
Computing Atmospheric mass density...

Documentation

Showing up to 5 results
|